NUVIEW ALPHA

Last updated on Sun Jun 21 2026 00:03:09 GMT+0000 (Coordinated Universal Time)

1 62455U 24252B 26171.37551706 -.00000220 00000+0 00000+0 0 9991 2 62455 0.0544 34.8592 0001109 31.8120 254.0224 1.00268481 3859
UTC large
Height (km)
Speed (km/s)
/
Latitude / Longitude
Inclination (degrees)
Orbital Period (minutes)
Azimuth
Elevation
Range (km)
Doppler Factor

Next 0 passes for location: London (51.5072 / 0.1276)

No passes found over London.
NUVIEW ALPHA